This is the latest recevied weather packets stored in our database for station/object SV7RNH. If no packets are shown the sender has not sent any weather packets the latest 10 day(s).
| Time | Temp. | Humidity | Pressure | Rain* | Wind** | Luminosity | Snow |
|---|---|---|---|---|---|---|---|
| 1778068804 | 28.33° C | 22% | 1016.6 hPa | 0 mm | - | - | - |
| 1778068504 | 27.78° C | 21% | 1016.7 hPa | 0 mm | - | - | - |
| 1778068203 | 27.78° C | 21% | 1016.7 hPa | 0 mm | - | - | - |
| 1778067904 | 27.22° C | 22% | 1016.7 hPa | 0 mm | - | - | - |
| 1778067604 | 27.22° C | 22% | 1016.7 hPa | 0 mm | - | - | - |
| 1778067303 | 27.78° C | 21% | 1016.8 hPa | 0 mm | - | - | - |
| 1778067003 | 27.78° C | 20% | 1016.9 hPa | 0 mm | - | - | - |
| 1778066704 | 27.78° C | 20% | 1016.8 hPa | 0 mm | - | - | - |
| 1778066404 | 27.78° C | 21% | 1016.9 hPa | 0 mm | - | - | - |
| 1778066103 | 27.22° C | 21% | 1016.8 hPa | 0 mm | - | - | - |
| 1778065803 | 27.78° C | 20% | 1017 hPa | 0 mm | - | - | - |
| 1778065504 | 27.78° C | 18% | 1017 hPa | 0 mm | - | - | - |
| 1778065203 | 27.78° C | 15% | 1017 hPa | 0 mm | - | - | - |
| 1778064903 | 27.78° C | 14% | 1016.9 hPa | 0 mm | - | - | - |
| 1778064604 | 27.78° C | 13% | 1016.8 hPa | 0 mm | - | - | - |
| 1778064304 | 27.78° C | 14% | 1016.9 hPa | 0 mm | - | - | - |
| 1778064003 | 27.22° C | 14% | 1016.9 hPa | 0 mm | - | - | - |
| 1778063703 | 27.22° C | 17% | 1017 hPa | 0 mm | - | - | - |
| 1778063404 | 27.22° C | 15% | 1017.1 hPa | 0 mm | - | - | - |
| 1778063104 | 27.78° C | 17% | 1017.1 hPa | 0 mm | - | - | - |
| 1778062804 | 27.78° C | 19% | 1017.1 hPa | 0 mm | - | - | - |
| 1778062503 | 27.78° C | 20% | 1017.1 hPa | 0 mm | - | - | - |
| 1778062203 | 27.78° C | 20% | 1017.2 hPa | 0 mm | - | - | - |
| 1778061904 | 27.78° C | 18% | 1017.2 hPa | 0 mm | - | - | - |
| 1778061604 | 27.78° C | 17% | 1017.4 hPa | 0 mm | - | - | - |
* Rain latest hour (hover to see other rain measurements)
** Current wind speed in m/s (hover to see current wind gust speed)